Location: Moreton
(51.7333°N, 0.2167°E)
Time: 01:06:24
(UTC+00:00)

Daily predictions for brighter satellites

Satellite Brightness Start Highest point End
(mag) Time Altitude Azimuth Time Altitude Azimuth Time Altitude Azimuth
CENTAUR R/B 4.4 02:05:13 29° NNE 02:05:13 29° NNE 02:09:40 10° NE
ACS3 Solar Sail 4.0 02:00:47 10° NE 02:03:45 18° ENE 02:03:45 18° ENE
ADEOS Rocket 4.4 02:33:11 10° NNE 02:38:45 38° E 02:38:45 38° E
Cosmos 2219 Rocket 4.0 02:55:05 27° E 02:55:05 27° E 02:58:53 10° NE
CZ-2D R/B 4.4 03:13:22 10° N 03:14:23 16° N 03:14:23 16° N
USA 267 3.7 03:14:12 10° ENE 03:20:18 52° SE 03:20:18 52° SE
Cosmos 1980 Rocket 4.2 03:27:56 18° N 03:27:56 18° N 03:29:49 10° NNE
H-2A R/B 3.8 03:26:11 10° NNE 03:28:04 23° NNE 03:28:04 23° NNE
Cosmos 2278 Rocket 3.7 03:29:48 27° N 03:31:35 33° NE 03:36:38 10° ESE
USA 238 DEB 4.0 03:33:04 55° N 03:33:04 55° N 03:38:48 10° NE
USA 238 4.0 03:33:10 56° N 03:33:10 56° N 03:38:55 10° NE
Cosmos 2333 Rocket 3.1 03:39:31 43° NNE 03:39:31 43° NNE 03:43:20 10° NNE
ADEOS II 4.0 03:38:20 10° N 03:39:55 20° N 03:39:55 20° N
Lacrosse 5 rocket 4.0 03:46:58 13° ENE 03:46:58 13° ENE 03:47:27 10° ENE
COSMOS 2455 3.1 03:45:06 64° NNE 03:45:06 64° NNE 03:50:12 10° NE
ACS3 Solar Sail 1.8 03:42:39 10° NNE 03:47:53 69° NNE 03:47:53 69° NNE
Resurs 1-4 Rocket 4.2 03:47:10 10° N 03:48:13 15° N 03:48:13 15° N
CENTAUR R/B 4.0 03:52:18 29° NNW 03:54:53 36° N 04:02:43 10° ENE
Cosmos 2360 Rocket 2.5 03:59:08 55° N 03:59:08 55° N 04:03:42 10° NNE
Cosmos 2322 Rocket 2.7 03:59:32 50° N 03:59:32 50° N 04:03:54 10° NNE
USA 234 3.2 03:52:40 10° SE 03:58:53 62° SSW 03:58:53 62° SSW
SL-16 R/B 3.2 04:06:02 33° N 04:06:02 33° N 04:09:46 10° NNE
Cosmos 44 Rocket 3.5 04:05:02 71° ESE 04:05:02 71° ESE 04:09:43 10° SE
Cosmos 1943 Rocket 2.8 04:06:17 30° N 04:08:50 52° NE 04:14:12 10° SE
H-2A R/B 4.4 04:08:14 10° NNE 04:11:15 41° ENE 04:11:15 41° ENE
Okean 1-7 3.6 04:13:09 52° NE 04:13:09 52° NE 04:16:40 10° NNE
ARGOS 3.1 04:09:05 10° NNE 04:14:33 83° ESE 04:16:18 45° S
PAYLOAD A 4.4 04:09:56 10° NNE 04:15:21 65° ESE 04:20:29 11° S
Cosmos 1140 Rocket 3.5 04:15:55 53° N 04:17:06 76° ENE 04:22:12 10° SSE
Timation 2 Rocket 4.1 04:14:48 27° NNW 04:18:48 78° NE 04:25:16 10° SE
CZ-2C R/B 2.4 04:14:53 10° NNE 04:19:53 81° ESE 04:21:32 44° S
Cosmos 1809 Rocket 4.4 04:18:19 10° S 04:24:26 83° E 04:30:33 10° NNE
ADEOS Rocket 3.3 04:18:40 10° N 04:24:53 53° WNW 04:25:40 51° W
NOSS 3-1 (C) 3.6 04:27:25 31° S 04:29:29 53° SE 04:35:04 10° NE
Iridium 4 Rocket 4.4 04:26:35 10° N 04:30:45 39° E 04:34:41 10° SSE
SJ 16-02 3.8 04:27:45 10° N 04:30:53 19° NE 04:33:58 10° E
Cosmos 2100 Rocket 3.8 04:24:56 10° N 04:31:07 87° WSW 04:37:17 10° S
Cosmos 2219 Rocket 2.2 04:36:49 54° W 04:37:41 61° NW 04:43:20 10° NNE
SL-24 R/B - RUBIN 2 3.8 04:39:23 55° WSW 04:40:30 78° NW 04:45:24 10° NE
TIMED 4.4 04:40:17 57° NNW 04:41:08 87° ENE 04:45:24 10° SSE
Cosmos 1707 Rocket 4.0 04:42:43 45° NNW 04:42:43 45° NNW 04:46:01 10° N
COSMOS 2428 2.9 04:41:55 10° SSW 04:47:35 70° ESE 04:53:15 10° NE
USA 59 Rocket -0.5 04:50:48 62° SE 04:50:49 62° SE 04:53:45 10° NE
SL-08 RB Rocket 3.6 04:46:58 10° N 04:51:31 66° WNW 04:53:29 33° SW
Cosmos 1459 Rocket 3.9 04:45:58 10° NNW 04:52:20 71° W 04:58:37 10° S
Cosmos 1864 Rocket 4.4 04:46:56 10° N 04:53:14 88° W 04:59:34 10° S
Cosmos 2322 3.7 04:50:01 14° SSW 04:55:01 88° ESE 05:00:44 10° NNE
FengYun 1-2 T 4.4 04:50:55 10° NNE 04:56:30 77° ESE 05:02:05 10° SSW
CZ-2D R/B 4.2 04:54:57 10° NNW 04:55:38 12° NNW 04:55:38 12° NNW
Cosmos 407 Rocket 3.4 04:54:46 15° NNW 04:59:04 88° ENE 05:04:09 10° SSE
COSMO-SKYMED 1 2.9 04:55:37 10° SSE 04:59:40 60° ENE 05:03:46 10° N
Meteor 2-21 4.3 04:54:00 10° SSW 05:00:06 75° WNW 05:06:11 10° N
SKYMED 2 3.6 04:56:38 10° SSE 05:00:59 84° ENE 05:05:21 10° NNW
Cosmos 1727 Rocket 4.0 04:56:38 10° SSW 05:02:41 55° WNW 05:08:49 10° N
Cosmos 1725 Rocket 3.9 04:56:26 10° NNW 05:02:47 83° W 05:09:06 10° S
Cosmos 2228 Rocket 3.3 05:03:28 44° W 05:03:47 45° WNW 05:08:03 10° N
USA 267 3.2 04:57:18 10° ENE 05:03:51 75° NNW 05:07:39 27° W
H-2A R/B 3.6 05:06:24 10° N 05:08:34 18° NNW 05:08:34 18° NNW
Cosmos 1802 Rocket 3.9 05:04:18 10° NNW 05:10:40 68° W 05:16:54 10° S
Cosmos 1269 Rocket 4.4 05:09:27 31° WNW 05:11:04 39° WSW 05:15:56 10° S
Cosmos 1980 Rocket 4.3 05:09:40 10° NNW 05:11:19 12° NNW 05:13:15 10° N
NOSS 3-1 (A) 3.9 05:09:07 10° SSW 05:13:41 49° ESE 05:19:12 10° NE
Cosmos 2233 Rocket 4.1 05:07:37 10° N 05:14:00 85° E 05:20:18 10° S
Cosmos 2278 Rocket 2.2 05:11:40 17° NW 05:16:01 61° WSW 05:21:34 10° SSE
Cosmos 1328 3.5 05:13:15 10° SSW 05:16:51 60° WNW 05:20:29 10° N
Cosmos 2251 Rocket 3.7 05:12:30 10° NNW 05:17:53 75° ENE 05:23:14 10° SSE
Cosmos 1703 Rocket 3.4 05:13:55 10° SSW 05:18:15 74° WNW 05:22:40 10° N
NOSS 2-1 (E) 2.7 05:18:53 27° SW 05:20:37 89° SE 05:23:41 10° NE
Cosmos 1939 Rocket 3.0 05:17:07 10° N 05:20:49 44° WNW 05:23:42 15° SW
Lacrosse 5 rocket 1.8 05:20:39 30° NW 05:21:23 34° N 05:24:31 10° ENE
Cosmos 2173 Rocket 4.2 05:15:53 10° NNW 05:21:32 42° W 05:27:11 10° SSW
ADEOS II 4.1 05:19:55 10° NNW 05:20:43 11° NNW 05:20:43 11° NNW
Meteor 2-16 Rocket 4.4 05:16:35 10° SSW 05:22:41 82° W 05:28:51 10° N
Cosmos 2333 Rocket 3.5 05:21:33 21° NW 05:22:51 22° NW 05:27:17 10° NNE
USA-17 4.1 05:22:08 40° WNW 05:23:06 75° SW 05:26:22 10° SE
Cosmos 2237 Rocket 2.8 05:18:06 10° SSW 05:23:40 59° ESE 05:29:13 10° NE
SL-08 R/B 4.4 05:18:49 10° NNW 05:24:54 72° W 05:31:01 10° S
BlueWalker 3 3.3 05:27:40 20° SW 05:28:00 20° SW 05:30:42 10° S
Cosmos 2292 Rocket 3.8 05:24:23 10° SSW 05:28:42 84° W 05:34:22 10° N
USA 276 4.4 05:29:39 10° SSW 05:29:39 10° SSW 05:29:50 10° SSW
COSMOS 2455 3.8 05:28:15 21° WNW 05:30:51 29° NNW 05:36:05 10° NNE
ACS3 Solar Sail 2.9 05:26:38 10° N 05:30:58 21° NW 05:32:02 20° WNW
Meteor 1-24 Rocket 3.7 05:27:44 10° SSW 05:33:26 61° WNW 05:38:58 10° N
Cosmos 2369 Rocket 3.5 05:28:23 10° NNW 05:33:40 38° NE 05:38:58 10° ESE
Helios 1A Rocket 2.8 05:30:54 10° S 05:34:08 40° W 05:36:22 17° NW
CZ-4 R/B 3.8 05:30:25 10° NNE 05:35:21 72° WNW 05:40:09 10° SSW
Cosmos 1782 Rocket 3.6 05:32:54 10° NNW 05:37:14 58° W 05:41:31 10° S
SJ-11-01 4.5 05:37:51 10° N 05:42:21 47° WNW 05:46:51 10° SW
Cosmos 2360 Rocket 3.6 05:40:55 17° WNW 05:43:02 21° NNW 05:47:16 10° NNE
Cosmos 2322 Rocket 3.6 05:41:20 16° WNW 05:43:24 20° NNW 05:47:30 10° NNE
Cosmos 2123 Rocket 4.1 05:38:11 10° SSW 05:44:12 51° WNW 05:50:15 10° N
NOAA 12 4.1 05:39:18 10° NNE 05:44:36 71° WNW 05:49:54 10° SSW
Meteor 2-5 Rocket 3.9 05:38:49 10° SSW 05:44:38 56° WNW 05:50:24 10° N
Cosmos 1420 Rocket 4.5 05:40:38 10° SSW 05:45:50 66° ESE 05:51:07 10° NNE
Gbstr 26 Del rocket 3.8 05:41:19 13° WSW 05:45:51 74° SSE 05:52:09 10° ENE
CENTAUR R/B 3.6 05:39:24 10° NW 05:47:04 61° NE 05:56:09 10° ESE
Okean 1-7 4.4 05:49:34 18° WNW 05:49:56 18° WNW 05:52:52 10° NNW
SL-16 R/B 4.0 05:47:53 12° NW 05:50:10 15° NNW 05:53:18 10° N
TiPS 4.4 05:48:38 10° SW 05:51:05 79° SE 05:53:23 10° NE
Cosmos 1943 Rocket 2.8 05:47:50 12° NW 05:52:20 33° WSW 05:57:10 10° SSW
Cosmos 2016 Rocket 4.4 05:46:54 10° NNW 05:52:50 42° W 05:58:43 10° SSW
ARGOS 4.4 05:50:13 10° N 05:54:11 21° NW 05:57:45 11° W
Cosmos 1812 2.4 05:53:21 10° N 05:56:17 63° ENE 05:59:10 10° SSE
CZ-2C R/B 3.7 05:53:53 10° N 05:57:24 20° NW 06:00:45 11° W
Cosmos 1300 Rocket 4.2 05:53:43 10° NNW 05:57:38 33° W 06:01:31 10° SSW
Cosmos 374 Rocket 4.4 05:57:57 10° WSW 06:01:46 65° NW 06:06:19 10° NE
Cosmos 2346 Rocket 4.4 05:56:42 10° SSW 06:02:52 82° W 06:09:01 10° N
NOSS 2-1 (C) 3.4 06:00:52 14° W 06:03:20 33° NW 06:06:06 10° NNE
NOSS 2-1 (D) 3.6 06:04:54 13° W 06:07:20 30° NW 06:10:01 10° NNE
SJ 16-02 1.2 06:05:12 10° NNW 06:09:30 70° WSW 06:13:45 10° SSE
Iridium 4 Rocket 4.1 06:06:45 10° NNW 06:10:17 24° W 06:13:39 10° SW
Aureole 3 Rocket 3.3 06:06:28 10° NNW 06:10:33 69° W 06:16:11 10° S
Okean 1 Rocket 4.3 06:06:40 10° N 06:10:51 43° ENE 06:14:58 10° SE
Cosmos 2061 Rocket 4.3 06:07:26 10° NNW 06:13:14 43° W 06:19:01 10° SSW
CBERS-1 4.1 06:09:35 10° NNE 06:14:45 88° ESE 06:19:52 10° SSW
SWARM C 4.5 06:14:27 10° S 06:17:45 68° W 06:21:05 10° N
SWARM A 4.1 06:14:31 10° S 06:17:50 80° W 06:21:10 10° N
IRS-1D 4.1 06:14:29 10° N 06:18:53 32° WNW 06:23:13 10° WSW
Cosmos 1190 Rocket 4.4 06:13:52 10° NW 06:18:54 46° WSW 06:23:53 10° S
Cosmos 676 Rocket 4.0 06:14:45 10° NNW 06:20:00 69° WSW 06:25:10 10° SSE
NOSS 3-1 (C) 3.7 06:15:33 10° W 06:20:22 43° NNW 06:26:22 10° NE
Cosmos 1378 Rocket 3.8 06:16:11 10° S 06:20:26 75° E 06:24:44 10° NNE
Cosmos 1869 3.5 06:18:01 10° NNW 06:21:18 37° W 06:24:33 10° SSW
SL-16 R/B 3.3 06:16:28 10° S 06:21:56 51° ESE 06:27:27 10° NE
Cosmos 2219 Rocket 3.6 06:18:51 10° WNW 06:22:49 19° NNW 06:26:49 10° NNE
In-Cosmos 22 Rocket 4.3 06:17:05 10° SSW 06:22:55 86° WNW 06:28:47 10° NNE
Cosmos 2056 Rocket 3.7 06:21:20 10° SSW 06:26:44 87° ESE 06:32:11 10° NNE
Okean 2 Rocket 3.3 06:24:12 10° N 06:28:36 77° E 06:32:57 10° SSE
Cosmos 371 Rocket 3.5 06:25:26 10° NNW 06:30:09 54° WSW 06:34:52 10° S
NOSS 0 Rocket 4.3 06:24:52 10° WSW 06:30:44 45° NW 06:36:39 10° NNE
COSMOS 2428 3.6 06:27:21 10° WSW 06:32:19 30° NW 06:37:18 10° NNE
